Home > Weather > Sendai > Past weeks

Flag for Japan Past Weather in Sendai, Japan — Yesterday and Last 2 Weeks

Now
70 °F

Partly sunny.


Feels Like: 70 °F
Forecast: 65 / 71 °F
Wind: 12 mph from South

Location: Sendai Airport

Current Time: Jun 29, 2016 at 7:54:59 PM

Latest Report: Jun 29, 2016 at 7:00 PM


Visibility: N/A

Pressure: 29.98 "Hg

Humidity: 78%

Dew Point: 63 °F

Location of SendaiLocation

Past Weather in Sendai — Graph

°F

Sendai Temperature Yesterday

Maximum temperature yesterday: 68 °F (at 6:00 AM)
Minimum temperature yesterday: 64 °F (at 7:00 PM)
Average temperature yesterday: 66 °F

High & Low Weather Summary for the Past Weeks

 TemperatureHumidityPressure
High84 °F (Jun 18, 11:00 AM)100% (Jun 17, 6:00 AM)30.01 "Hg (Jun 17, 6:00 AM)
Low63 °F (Jun 15, 6:00 AM)35% (Jun 18, 11:00 AM)29.45 "Hg (Jun 25, 6:00 AM)
Average69 °F80%29.77 "Hg
* Reported Jun 14 6:00 PM — Jun 29 6:00 PM, Sendai, Weather by CustomWeather, © 2016

Note: Actual official high and low records may vary slightly from our data, if they occured in-between our weather recording intervals... More about our weather records

Advertising

Sendai Weather History for the Previous 24 Hours

Scroll right to see more
 ConditionsComfort  
Time TempWeatherWind HumidityBarometerVisibility
6:00 PM
Wed, Jun 29
70 °FPartly sunny.12 mph78%29.98 "HgN/A
5:00 PM70 °FBroken clouds.10 mph78%29.98 "HgN/A
4:00 PM72 °FPartly sunny.12 mph73%29.95 "HgN/A
3:00 PM73 °FPartly sunny.12 mph65%29.95 "HgN/A
2:00 PM73 °FPartly sunny.10 mph69%29.95 "HgN/A
1:00 PM75 °FPartly sunny.10 mph65%29.98 "HgN/A
12:00 PM73 °FPartly sunny.10 mph65%29.98 "HgN/A
11:00 AM73 °FScattered clouds.7 mph74%29.98 "HgN/A
10:00 AM72 °FPartly sunny.7 mph73%29.98 "HgN/A
9:00 AM72 °FPartly sunny.3 mph78%29.98 "HgN/A
8:00 AM68 °FPartly sunny.2 mph83%29.98 "HgN/A
7:00 AM66 °FFog.2 mph88%30.01 "HgN/A
6:00 AM64 °FFog.2 mph88%29.98 "HgN/A
9:00 PM
Tue, Jun 28
64 °FPartly cloudy.5 mph94%29.95 "HgN/A
8:00 PM64 °FPartly cloudy.3 mph94%29.92 "HgN/A
7:00 PM64 °FLight rain. Broken clouds.2 mph94%29.92 "HgN/A
Weather by CustomWeather, © 2016

See weather overviewHow to use our weather pages